Wind_Speed
1 1 2 2 2 1 2 2 3 4 4 5 5 6 7 7 7 7 7 7 7 7 7 7 7 7 7 7 7 7 7 7 6 6 6 6 6 6 6 7 7 7 7
2 2 3 3 2 1 1 1 2 3 3 4 5 6 7 7 8 8 8 8 8 8 8 8 8 7 7 7 6 6 7 6 6 5 5 5 5 5 5 6 6 7 7
3 3 3 3 3 2 1 1 1 2 3 4 5 6 7 8 8 8 9 9 9 9 9 9 8 8 7 7 7 6 6 6 6 5 4 4 4 4 4 5 6 6 7
3 3 3 4 3 3 2 2 2 3 4 4 6 7 8 8 9 10 10 10 10 10 10 10 9 9 8 7 7 6 6 6 5 5 4 3 2 2 3 4 5 6 6
3 3 3 4 4 3 3 3 4 4 4 5 6 7 8 9 10 10 10 10 10 10 11 11 10 10 9 8 7 7 6 6 6 5 4 3 1 1 2 3 4 5 5
3 3 4 4 4 4 4 4 5 5 5 6 6 7 8 10 11 11 11 11 11 11 11 11 11 11 10 10 9 8 7 7 7 6 5 3 2 1 2 3 4 4 5
3 3 4 4 4 5 5 5 5 5 6 7 8 9 9 10 11 11 12 12 13 13 13 13 13 13 12 11 10 9 9 8 8 8 7 6 4 3 3 3 4 4 5
3 3 4 4 5 5 5 5 6 6 7 8 9 10 11 12 12 13 14 14 15 15 15 15 15 15 14 13 12 11 11 10 9 9 8 7 6 6 5 5 5 5 5
3 3 4 4 5 6 6 6 7 8 9 9 10 11 13 14 15 15 16 17 17 17 17 17 17 17 16 15 15 14 12 12 11 10 10 9 8 8 8 7 7 6 6
4 4 4 5 6 6 7 8 9 10 11 12 12 13 14 15 16 17 18 18 19 19 20 20 20 20 19 18 18 17 15 14 13 12 12 11 11 11 10 10 9 9 8
5 5 5 7 7 8 9 10 11 13 14 15 15 16 16 17 18 18 19 20 20 20 21 21 21 21 21 21 21 20 19 17 15 14 14 14 13 12 12 12 11 11 10
6 6 6 7 8 10 11 12 13 14 16 17 18 18 18 19 19 19 19 19 19 20 20 21 21 21 23 23 23 23 22 20 18 16 16 16 15 14 15 15 14 13 13
6 6 7 8 10 10 12 13 14 15 16 17 18 18 19 20 20 18 18 18 18 18 18 19 19 21 22 23 24 24 23 23 20 18 18 18 18 17 16 16 16 16 15
7 7 8 9 10 11 12 13 14 14 15 17 17 18 18 18 18 17 17 17 18 17 17 18 18 19 20 22 24 24 23 22 22 21 20 20 19 18 17 17 17 17 16
7 7 8 9 10 11 12 13 14 14 15 15 16 16 16 15 15 15 15 16 16 16 16 17 18 19 19 20 22 23 23 22 22 21 20 19 18 17 18 18 18 19 18
7 8 8 10 11 12 12 12 13 13 13 14 14 14 14 14 14 13 13 14 15 15 16 17 18 18 19 20 21 22 23 23 21 22 21 20 19 19 18 19 19 20 21
8 8 9 10 11 12 12 12 12 12 12 12 12 12 13 12 12 12 13 14 15 16 17 17 17 18 18 19 20 21 22 22 22 22 22 21 20 19 19 19 19 21 21
8 9 10 9 9 10 10 10 10 9 9 10 11 12 12 12 12 13 14 15 16 17 16 17 18 18 18 18 18 19 20 21 22 23 23 22 22 21 21 21 20 21 22
7 8 8 8 8 8 8 8 8 9 9 10 10 11 11 12 13 13 14 15 15 16 16 16 17 18 18 17 17 18 19 20 22 22 23 23 22 23 23 23 23 23 23
7 7 7 7 7 7 7 8 8 9 9 10 10 11 12 12 12 13 13 14 14 14 14 15 15 16 16 16 16 17 18 19 21 22 22 23 23 23 24 25 25 25 25
7 6 6 6 6 6 7 8 8 9 9 9 10 10 11 11 11 12 12 12 13 14 14 14 14 15 15 15 16 17 18 19 20 21 22 22 23 24 25 25 26 27 27
6 4 4 5 5 6 7 8 8 8 9 9 9 10 11 11 11 12 12 13 13 14 14 14 15 15 15 16 17 18 19 20 20 21 22 23 24 25 25 26 27 28 29
4 3 3 3 4 5 6 7 7 7 8 8 8 9 10 11 12 12 13 13 14 14 15 15 15 16 16 17 17 18 19 21 21 22 22 23 24 25 26 26 27 28 29
2 1 2 2 3 4 5 6 6 7 7 8 8 9 10 11 12 13 13 14 15 16 16 16 17 17 17 18 18 19 20 21 22 23 24 24 25 26 27 27 28 29 30
1 1 1 2 3 4 5 6 6 7 7 7 8 9 10 11 12 13 14 15 16 17 17 17 17 18 18 19 20 20 20 21 22 23 25 25 26 27 28 29 29 30 32
0 1 1 2 3 4 5 5 6 7 8 8 9 10 11 12 13 14 15 16 17 18 19 19 19 20 20 21 21 22 23 24 24 25 26 27 28 28 29 30 31 31 32
Wind_Direction
254 168 140 135 126 102 75 51 26 9 3 358 355 351 348 345 344 344 345 345 346 346 348 351 356 2 7 11 16 20 24 26 34 41 50 61 74 84 92 96 100 100 100
193 176 173 169 165 155 132 65 5 343 337 335 335 335 335 334 332 331 331 332 332 332 333 334 337 342 348 354 1 8 13 16 22 29 41 54 69 83 91 97 102 102 101
178 180 190 191 184 187 209 246 303 312 313 315 317 318 319 321 322 323 323 323 322 321 321 321 323 326 331 338 345 352 358 3 7 13 26 43 60 80 91 98 104 106 105
175 177 189 202 203 211 229 248 268 288 295 298 302 305 308 310 311 313 312 313 313 313 312 312 312 314 317 324 330 335 339 345 350 352 2 22 50 90 100 111 114 115 114
180 180 188 202 209 218 233 250 264 279 287 291 297 300 303 303 304 304 305 304 304 305 304 304 304 306 307 310 313 317 319 323 329 331 335 351 29 113 126 128 130 129 128
193 193 200 207 212 217 230 252 266 275 283 286 291 295 299 299 298 297 298 299 299 299 299 299 299 299 300 301 300 301 301 306 309 308 307 308 299 239 187 168 153 147 142
200 209 215 217 223 232 243 254 265 276 282 284 286 291 294 296 294 291 292 293 294 295 295 295 295 294 294 294 292 292 292 292 294 295 293 287 277 262 238 213 192 172 159
202 216 224 230 237 247 256 263 271 279 285 287 288 288 289 293 293 288 288 288 288 289 290 290 290 289 289 288 287 285 284 283 282 283 285 280 270 259 248 236 221 203 182
201 217 233 246 254 256 265 274 278 280 284 288 290 290 290 294 294 289 285 284 284 283 284 285 286 286 284 283 282 280 278 278 276 276 275 270 262 256 248 239 230 222 207
215 229 254 258 264 267 273 281 285 285 287 288 289 290 289 291 293 289 284 281 281 280 279 280 281 281 279 278 278 276 274 272 271 271 270 266 261 256 246 240 234 228 221
224 245 262 265 270 277 282 286 288 287 287 286 287 286 284 286 287 286 282 280 279 277 274 276 277 276 275 274 274 273 273 269 265 265 266 266 261 254 246 243 238 232 226
230 256 271 274 275 280 284 287 287 286 286 286 286 285 283 283 284 285 281 280 281 278 275 275 275 276 272 270 270 272 270 267 265 264 263 262 260 257 252 244 240 234 229
231 256 270 273 277 282 283 284 286 287 288 287 286 287 286 285 284 284 282 282 284 282 279 278 277 276 272 269 269 270 268 264 263 262 263 261 259 256 253 244 239 235 233
231 251 264 269 275 281 284 286 288 288 290 288 286 287 286 284 281 281 282 283 283 282 278 277 276 276 274 270 269 269 268 265 263 261 263 263 257 252 251 247 244 238 235
234 251 265 271 276 281 283 285 287 290 292 288 286 287 287 286 282 279 280 282 281 279 278 276 277 278 277 273 270 267 266 264 262 261 261 260 257 256 253 251 247 241 238
244 260 266 274 277 279 283 284 286 290 289 288 285 287 289 288 286 283 284 283 281 280 280 279 278 278 277 274 271 267 263 260 258 257 257 258 258 256 253 251 250 244 240
248 260 270 278 282 285 289 289 293 296 295 292 290 293 297 296 293 288 290 289 286 285 283 281 280 278 278 277 272 266 262 258 256 257 257 256 256 254 252 252 249 244 241
251 261 270 281 288 293 296 296 300 305 307 304 300 299 301 302 298 296 297 295 293 291 289 285 282 281 279 277 272 266 264 262 259 259 258 257 256 255 253 251 248 246 243
251 261 269 281 290 299 301 304 309 313 314 311 307 304 306 306 305 303 302 300 298 296 293 289 285 281 278 277 274 270 267 265 262 262 260 259 258 256 254 252 250 248 245
250 262 275 283 287 297 304 310 313 317 317 312 307 307 307 310 310 308 307 306 305 302 299 294 292 287 282 278 275 272 268 265 265 264 262 260 258 256 254 252 249 247 246
245 265 279 283 290 298 306 312 314 319 319 315 314 314 315 318 317 315 314 313 311 310 307 302 297 293 288 283 278 275 271 269 267 264 263 263 260 257 254 252 249 247 245
238 259 273 282 292 299 307 314 317 319 317 317 319 320 322 323 322 320 320 319 317 314 311 308 303 298 294 289 284 280 276 272 269 266 263 262 262 259 256 253 250 249 246
223 255 274 289 301 309 318 324 323 322 322 324 325 326 327 326 325 325 324 323 322 321 318 314 309 303 298 292 287 283 280 276 273 269 266 263 262 261 258 255 252 250 248
228 256 282 302 312 321 330 330 327 327 328 329 330 331 332 332 330 328 326 325 324 323 321 317 313 308 303 298 292 287 283 279 277 274 270 267 264 262 260 258 254 251 248
171 247 296 308 320 325 329 332 333 335 337 338 337 336 335 334 332 331 329 327 325 323 321 318 315 311 305 301 296 292 287 283 279 276 274 270 266 264 261 259 256 252 249
150 296 302 317 322 324 328 333 339 343 344 344 343 341 338 335 333 332 330 328 327 325 321 318 316 312 308 303 299 295 291 286 282 279 276 273 270 266 263 260 258 255 251
Height
5913 5913 5913 5914 5914 5915 5915 5916 5916 5916 5916 5916 5915 5915 5915 5914 5914 5913 5913 5912 5912 5911 5911 5910 5910 5909 5909 5908 5908 5907 5906 5906 5905 5904 5904 5903 5902 5902 5902 5902 5902 5902 5902
5913 5913 5913 5913 5914 5915 5915 5916 5916 5916 5916 5916 5915 5915 5915 5914 5914 5913 5913 5912 5912 5911 5911 5910 5910 5909 5909 5908 5908 5907 5907 5906 5906 5905 5904 5904 5903 5903 5903 5902 5903 5903 5903
5912 5912 5913 5913 5914 5914 5915 5915 5915 5915 5915 5915 5915 5914 5914 5914 5913 5913 5912 5912 5911 5911 5910 5910 5909 5909 5908 5908 5908 5907 5907 5906 5906 5905 5905 5904 5904 5904 5903 5903 5903 5904 5904
5911 5912 5912 5913 5913 5914 5914 5914 5915 5915 5914 5914 5914 5913 5913 5913 5912 5912 5911 5911 5910 5910 5909 5909 5908 5908 5908 5908 5907 5907 5906 5906 5906 5905 5905 5904 5904 5904 5904 5904 5904 5904 5905
5911 5911 5911 5912 5912 5913 5913 5913 5913 5913 5913 5913 5913 5912 5912 5911 5911 5910 5910 5910 5909 5909 5908 5908 5907 5907 5907 5907 5906 5906 5906 5905 5905 5905 5905 5904 5904 5904 5904 5904 5905 5905 5905
5909 5910 5910 5911 5911 5912 5912 5912 5912 5912 5912 5912 5911 5911 5910 5910 5909 5909 5908 5908 5908 5907 5907 5906 5906 5906 5905 5905 5905 5905 5905 5904 5904 5904 5904 5904 5905 5905 5905 5905 5905 5905 5906
5908 5909 5910 5910 5910 5910 5910 5910 5910 5910 5910 5910 5909 5909 5908 5908 5907 5907 5907 5906 5906 5906 5905 5905 5904 5904 5904 5903 5903 5903 5903 5903 5904 5904 5904 5904 5904 5905 5905 5905 5905 5905 5906
5907 5908 5908 5908 5908 5908 5908 5908 5908 5908 5908 5908 5907 5907 5906 5905 5905 5905 5904 5904 5904 5903 5903 5902 5902 5901 5901 5901 5901 5901 5901 5902 5902 5902 5902 5903 5903 5904 5904 5905 5905 5905 5905
5905 5906 5906 5906 5906 5906 5906 5906 5906 5906 5905 5905 5904 5904 5903 5903 5902 5902 5901 5901 5901 5900 5900 5900 5899 5899 5898 5898 5898 5898 5899 5899 5900 5900 5900 5901 5901 5902 5902 5903 5904 5904 5905
5903 5904 5904 5904 5905 5904 5904 5904 5903 5903 5903 5902 5901 5901 5900 5900 5899 5898 5898 5897 5897 5897 5897 5896 5896 5895 5895 5895 5895 5895 5896 5897 5897 5898 5898 5898 5899 5899 5900 5901 5902 5903 5903
5901 5901 5901 5902 5902 5902 5901 5901 5901 5900 5899 5899 5898 5897 5897 5896 5895 5894 5894 5893 5893 5893 5893 5893 5892 5892 5891 5891 5891 5891 5892 5893 5894 5895 5895 5895 5895 5896 5897 5898 5899 5900 5901
5898 5899 5899 5899 5899 5899 5899 5898 5898 5897 5896 5895 5894 5894 5893 5892 5891 5890 5890 5889 5889 5888 5888 5888 5888 5887 5887 5887 5886 5887 5887 5888 5890 5891 5891 5892 5892 5893 5893 5895 5896 5897 5898
5895 5896 5896 5896 5896 5896 5895 5895 5894 5893 5893 5891 5890 5890 5889 5888 5887 5886 5886 5885 5885 5884 5884 5884 5883 5883 5882 5882 5882 5882 5882 5884 5885 5886 5887 5888 5888 5889 5889 5890 5892 5894 5895
5891 5892 5893 5893 5893 5893 5892 5892 5891 5890 5889 5887 5886 5886 5884 5884 5883 5883 5882 5881 5881 5880 5880 5880 5879 5879 5878 5878 5877 5877 5878 5879 5880 5881 5883 5883 5884 5885 5885 5886 5888 5890 5892
5888 5889 5890 5890 5890 5890 5889 5889 5888 5887 5885 5884 5883 5882 5881 5880 5879 5878 5878 5877 5877 5877 5876 5876 5876 5875 5874 5873 5873 5872 5873 5874 5875 5876 5878 5879 5880 5880 5881 5882 5884 5886 5888
5886 5887 5887 5887 5887 5887 5887 5886 5885 5884 5882 5881 5879 5878 5877 5876 5876 5875 5874 5874 5873 5873 5872 5872 5871 5871 5870 5869 5868 5868 5869 5870 5871 5872 5873 5874 5875 5876 5877 5879 5880 5881 5883
5882 5884 5884 5884 5884 5883 5883 5883 5882 5880 5879 5877 5876 5875 5874 5873 5872 5872 5871 5870 5869 5869 5868 5868 5867 5866 5866 5864 5864 5863 5864 5865 5866 5867 5868 5869 5871 5872 5873 5874 5875 5877 5878
5880 5881 5881 5881 5880 5880 5880 5879 5878 5877 5876 5874 5873 5872 5871 5870 5869 5868 5867 5866 5865 5865 5864 5863 5862 5862 5861 5860 5859 5859 5860 5860 5861 5862 5863 5864 5865 5867 5868 5869 5870 5872 5873
5877 5878 5878 5878 5878 5877 5877 5876 5876 5875 5873 5872 5870 5869 5868 5867 5866 5865 5864 5863 5861 5860 5859 5859 5858 5857 5856 5856 5855 5855 5855 5855 5856 5856 5857 5858 5860 5861 5862 5864 5865 5867 5868
5875 5876 5876 5876 5875 5875 5875 5874 5874 5872 5871 5870 5868 5867 5866 5864 5863 5862 5861 5859 5858 5856 5855 5854 5853 5852 5852 5852 5851 5851 5851 5851 5851 5851 5852 5852 5853 5855 5856 5858 5860 5861 5863
5873 5873 5873 5873 5873 5873 5873 5872 5871 5870 5869 5868 5866 5864 5863 5862 5860 5859 5858 5856 5855 5853 5852 5850 5849 5848 5848 5847 5847 5847 5847 5846 5846 5846 5846 5847 5847 5849 5850 5851 5853 5855 5857
5871 5871 5872 5872 5872 5871 5871 5870 5869 5868 5867 5865 5863 5862 5860 5859 5857 5856 5855 5853 5851 5850 5848 5847 5845 5844 5843 5843 5842 5842 5842 5842 5841 5841 5841 5841 5842 5842 5844 5845 5846 5848 5850
5869 5870 5870 5870 5870 5869 5869 5868 5867 5866 5864 5863 5861 5860 5858 5856 5855 5853 5851 5850 5848 5847 5845 5843 5842 5840 5839 5838 5838 5837 5836 5836 5836 5836 5836 5836 5836 5836 5837 5838 5840 5841 5842
5868 5868 5868 5868 5868 5868 5867 5866 5865 5864 5862 5861 5859 5858 5856 5854 5852 5850 5849 5847 5845 5844 5842 5840 5838 5836 5835 5834 5833 5832 5831 5830 5830 5829 5830 5829 5829 5830 5830 5831 5832 5833 5835
5866 5866 5866 5866 5866 5866 5865 5864 5863 5862 5860 5859 5857 5856 5854 5852 5850 5848 5846 5844 5842 5840 5838 5836 5834 5832 5830 5829 5827 5826 5825 5824 5823 5823 5823 5822 5822 5822 5823 5824 5824 5825 5827
5865 5865 5865 5865 5864 5864 5863 5862 5861 5860 5858 5857 5855 5853 5851 5849 5847 5845 5843 5841 5838 5836 5834 5832 5829 5827 5825 5823 5822 5820 5819 5818 5817 5816 5815 5815 5815 5815 5815 5815 5816 5817 5818